CW8593 Gava ES current weather conditions

sailwx.info

Wind from 205 at 0 knots gusting 5

Air temperature 25.0° C
Dewpoint 22.1° C

Last reported at 2014-Aug-28 18:23 UTC.
Time now 2014-Aug-28 23:20 UTC

Location: N 41°18' E 001°60'.
View on Google Maps.

See reports from other nearby stations

  
Tides and Currents Weather Stations Pressure Air Temp Water Temp Dewpoint Dewpoint Depression Visibility Wind Speed Wind Dir Waves Ship Positions
date/time (UTC)wind fromknots sea level pressurealtimeterstation pressurevisibilityair tempwater tempwave heightnotes
2014-Aug-28 18:23 205 0 gusting 5 25.0
2014-Aug-28 18:03 192 1 gusting 7 25.0
2014-Aug-28 17:53 153 2 gusting 5 25.6
2014-Aug-28 17:43 171 3 gusting 6 25.6
2014-Aug-28 17:33 160 1 gusting 7 25.6
2014-Aug-28 17:23 153 4 gusting 7 25.6
2014-Aug-28 17:03 192 2 gusting 6 26.1
2014-Aug-28 16:53 150 4 gusting 7 26.1
2014-Aug-28 16:13 173 4 gusting 8 26.1
2014-Aug-28 16:03 135 5 gusting 7 26.7
2014-Aug-28 15:53 133 4 gusting 7 26.7
2014-Aug-28 15:43 185 4 gusting 8 26.1
2014-Aug-28 15:33 164 4 gusting 8 26.1
2014-Aug-28 15:23 133 2 gusting 10 26.1
2014-Aug-28 15:03 137 6 gusting 10 26.1
2014-Aug-28 14:53 155 4 gusting 8 26.1
2014-Aug-28 14:33 131 4 gusting 10 26.1
2014-Aug-28 14:13 188 4 gusting 10 26.7
2014-Aug-28 13:53 220 4 gusting 10 26.7
2014-Aug-28 13:33 123 4 gusting 10 26.1
2014-Aug-28 12:53 173 5 gusting 10 26.7
2014-Aug-28 12:33 138 3 gusting 8 26.7
2014-Aug-28 11:53 153 4 gusting 10 26.7
2014-Aug-28 11:43 141 2 gusting 10 26.7
2014-Aug-28 11:33 153 3 gusting 7 26.7
2014-Aug-28 11:23 117 2 gusting 6 26.7
2014-Aug-28 11:13 159 2 gusting 7 26.7
2014-Aug-28 11:03 136 4 gusting 8 26.7
2014-Aug-28 10:23 126 4 gusting 7 26.7
2014-Aug-28 10:13 152 4 gusting 7 26.7
2014-Aug-28 10:03 138 2 gusting 7 26.7
2014-Aug-28 09:53 146 5 gusting 6 26.7
2014-Aug-28 09:43 157 1 gusting 6 27.2
2014-Aug-28 09:33 175 2 gusting 5 27.2
2014-Aug-28 09:03 136 0 gusting 4 27.2
2014-Aug-28 08:23 166 1 gusting 2 26.7
2014-Aug-28 08:13 167 0 gusting 2 26.7
2014-Aug-28 08:03 170 26.7
2014-Aug-28 07:53 170 0 gusting 2 26.7
2014-Aug-28 07:43 183 26.7
2014-Aug-28 07:33 188 26.7
2014-Aug-28 07:23 188 0 gusting 1 26.1
2014-Aug-28 06:53 189 25.0
2014-Aug-28 06:43 188 24.4
2014-Aug-28 06:23 188 22.8
2014-Aug-28 05:53 189 21.1
2014-Aug-28 05:47 189 21.1
2014-Aug-28 04:43 182 21.1
2014-Aug-28 04:33 182 21.7
2014-Aug-28 04:13 179 21.1
2014-Aug-28 03:43 179 21.1
2014-Aug-28 03:03 179 20.6
2014-Aug-28 02:43 179 20.6
2014-Aug-28 02:13 179 21.1
2014-Aug-28 01:43 178 21.1
2014-Aug-28 01:33 178 21.1
2014-Aug-28 01:13 178 21.1
2014-Aug-28 01:03 178 1 gusting 2 21.1
2014-Aug-28 00:43 179 21.1
2014-Aug-28 00:13 147 21.1
2014-Aug-28 00:03 146 0 gusting 2 21.1
2014-Aug-27 23:43 146 1 gusting 2 21.7
2014-Aug-27 22:43 146 22.2
2014-Aug-27 22:33 145 0 gusting 2 22.2
2014-Aug-27 21:03 145 22.2
2014-Aug-27 20:33 146 0 gusting 2 22.8
2014-Aug-27 19:43 145 23.3
2014-Aug-27 19:13 145 23.9
2014-Aug-27 19:03 145 1 gusting 2 23.9
2014-Aug-27 18:43 144 2 gusting 5 24.4
2014-Aug-27 18:03 091 0 gusting 5 24.4
2014-Aug-27 17:13 080 1 gusting 6 25.0
2014-Aug-27 17:03 142 0 gusting 7 25.0
2014-Aug-27 16:13 070 1 gusting 8 25.6
2014-Aug-27 16:03 067 2 gusting 10 25.6
2014-Aug-27 15:13 149 3 gusting 7 25.6
2014-Aug-27 15:03 155 6 gusting 10 26.1
2014-Aug-27 14:33 131 5 gusting 10 26.7
2014-Aug-27 14:13 144 4 gusting 13 25.6
2014-Aug-27 14:03 105 6 gusting 12 26.1
2014-Aug-27 13:43 080 3 gusting 14 26.1
2014-Aug-27 13:33 081 4 gusting 12 26.1
2014-Aug-27 13:13 115 5 gusting 14 26.1
2014-Aug-27 12:33 124 5 gusting 11 26.7
2014-Aug-27 12:13 092 5 gusting 11 26.7
2014-Aug-27 11:33 101 2 gusting 12 27.2
2014-Aug-27 11:03 080 5 gusting 12 27.2
2014-Aug-27 10:43 080 4 gusting 11 27.2
2014-Aug-27 10:33 076 5 gusting 13 27.2
2014-Aug-27 10:13 054 6 gusting 14 27.2
2014-Aug-27 09:43 070 6 gusting 11 27.8
2014-Aug-27 08:43 089 3 gusting 7 27.2
2014-Aug-27 08:33 066 3 gusting 11 27.2
2014-Aug-27 07:43 016 2 gusting 6 26.1
2014-Aug-27 07:33 029 3 gusting 6 26.7
2014-Aug-27 07:13 344 0 gusting 2 26.1
2014-Aug-27 06:13 309 0 gusting 1 23.9
2014-Aug-27 06:03 309 23.3
2014-Aug-27 05:13 309 22.8
2014-Aug-27 04:43 309 23.3
2014-Aug-27 04:03 309 24.4
2014-Aug-27 03:43 310 1 gusting 5 24.4
2014-Aug-27 03:13 297 2 gusting 5 24.4
2014-Aug-27 02:33 315 4 gusting 6 23.9
2014-Aug-27 01:43 296 4 gusting 7 24.4
2014-Aug-27 01:33 321 4 gusting 7 23.9
2014-Aug-27 00:43 304 1 gusting 5 24.4
2014-Aug-27 00:33 303 1 gusting 5 24.4
2014-Aug-26 23:43 299 23.3
2014-Aug-26 23:33 299 0 gusting 2 23.3